Easter Island, Chile

10:47 AM -05 on January 17, 2019 (GMT -0500)
Mataveri International

Weather History for SCIP - December, 2018

Change the Weather History Date:

Friday, December 7, 2018

  Actual Average Record
Temperature  
Mean Temperature 70 °F -  
Max Temperature 79 °F - - ()
Min Temperature 62 °F - - ()
Cooling Degree Days 6    
Growing Degree Days 20 (Base 50)    
Moisture  
Dew Point 65 °F    
Average Humidity 78    
Maximum Humidity 94    
Minimum Humidity 60    
Precipitation  
Precipitation 0.00 in - - ()
Sea Level Pressure  
Sea Level Pressure 30.16 in    
Wind  
Wind Speed 3 mph ()    
Max Wind Speed 9 mph    
Max Gust Speed -    
Visibility 6.5 miles    
Events      
T = Trace of Precipitation, MM = Missing Value Source: Averaged Metar Reports

Daily Weather History Graph

Daily Weather History Graph

Search for Another Location

Airport or City:

Astronomy

Dec. 07, 2018 Rise Set
Actual Time 7:15 AM -05 9:03 PM -05
Civil Twilight 6:49 AM -05 9:29 PM -05
Nautical Twilight 6:17 AM -05 10:00 PM -05
Astronomical Twilight 5:44 AM -05 10:34 PM -05
Moon 7:39 AM -05 (12/7) 9:33 PM -05 (12/7)
Length of Visible Light 14h 39m
Length of Day
13h 47m
New Moon, 0% of the Moon is Illuminated
Dec 7
New Moon
Dec 15
First Quarter
Dec 22
Full
Dec 29
Last Quarter
Jan 5
New

Hourly Weather History & Observations

Time (-05) Temp. Dew Point Humidity Pressure Visibility Wind Dir Wind Speed Gust Speed Precip Events Conditions
12:00 AM 69.8 °F 66.2 °F 88% 30.24 in 6.2 mi Variable 2.3 mph - N/A   Mostly Cloudy
1:00 AM 70 °F 66 °F 84% 30.24 in 9 mi Calm Calm - -   Partly Cloudy
1:00 AM 69.8 °F 66.2 °F 88% 30.24 in 6.2 mi Calm Calm - N/A   Mostly Cloudy
2:00 AM 69.8 °F 64.4 °F 83% 30.21 in 6.2 mi Variable 2.3 mph - N/A   Scattered Clouds
3:00 AM 68.0 °F 64.4 °F 88% 30.18 in 6.2 mi Calm Calm - N/A   Partly Cloudy
4:00 AM 66 °F 62 °F 85% 30.18 in 9 mi NNE 4.6 mph - -   Partly Cloudy
4:00 AM 66.2 °F 62.6 °F 88% 30.18 in 6.2 mi NNE 4.6 mph - N/A   Partly Cloudy
5:00 AM 64.4 °F 60.8 °F 88% 30.15 in 6.2 mi NW 3.5 mph - N/A   Partly Cloudy
6:00 AM 64.4 °F 60.8 °F 88% 30.12 in 6.2 mi NW 2.3 mph - N/A   Partly Cloudy
7:00 AM 63 °F 60 °F 87% 30.15 in 12 mi WNW 2.3 mph - -   Partly Cloudy
7:00 AM 62.6 °F 60.8 °F 94% 30.15 in 6.2 mi WNW 2.3 mph - N/A   Partly Cloudy
8:00 AM 64.4 °F 62.6 °F 94% 30.15 in 6.2 mi NW 2.3 mph - N/A   Mostly Cloudy
9:00 AM 69.8 °F 66.2 °F 88% 30.15 in 6.2 mi WNW 2.3 mph - N/A   Mostly Cloudy
10:00 AM 74 °F 66 °F 70% 30.18 in 6 mi NNW 4.6 mph - -   Partly Cloudy
10:00 AM 73.4 °F 66.2 °F 78% 30.18 in 6.2 mi NNW 4.6 mph - N/A   Mostly Cloudy
11:00 AM 75.2 °F 64.4 °F 69% 30.18 in 6.2 mi Variable 2.3 mph - N/A   Mostly Cloudy
12:00 PM 77.0 °F 66.2 °F 69% 30.18 in 6.2 mi WNW 5.8 mph - N/A   Scattered Clouds
1:00 PM 77 °F 66 °F 60% 30.18 in 6 mi West 6.9 mph - -   Partly Cloudy
2:00 PM 77.0 °F 68.0 °F 74% 30.15 in 6.2 mi WNW 9.2 mph - N/A   Mostly Cloudy
3:00 PM 77.0 °F 66.2 °F 69% 30.15 in 6.2 mi West 6.9 mph - N/A   Mostly Cloudy
4:00 PM 77 °F 66 °F 61% 30.15 in 6 mi West 6.9 mph - -   Partly Cloudy
4:00 PM 77.0 °F 66.2 °F 69% 30.15 in 6.2 mi West 6.9 mph - N/A   Mostly Cloudy
5:00 PM 77.0 °F 66.2 °F 69% 30.12 in 6.2 mi Variable 8.1 mph - N/A   Mostly Cloudy
6:00 PM 77.0 °F 66.2 °F 69% 30.12 in 6.2 mi SW 6.9 mph - N/A   Mostly Cloudy
7:00 PM 76 °F 67 °F 66% 30.12 in 6 mi SW 5.8 mph - -   Partly Cloudy
7:00 PM 77.0 °F 66.2 °F 69% 30.12 in 6.2 mi SW 5.8 mph - N/A   Mostly Cloudy
8:00 PM 75.2 °F 66.2 °F 73% 30.12 in 6.2 mi SW 6.9 mph - N/A   Mostly Cloudy
9:00 PM 73.4 °F 66.2 °F 78% 30.12 in 6.2 mi Variable 2.3 mph - N/A   Mostly Cloudy
10:00 PM 71 °F 65 °F 77% 30.13 in 6 mi SE 3.5 mph - -   Partly Cloudy
10:00 PM 71.6 °F 66.2 °F 83% 30.12 in 6.2 mi SE 3.5 mph - N/A   Mostly Cloudy
11:00 PM 71.6 °F 66.2 °F 83% 30.12 in 6.2 mi ESE 1.2 mph - N/A   Mostly Cloudy